Flag for Brazil Weather past 2 weeks in Feira de Santana, Bahia, Brazil

Now
75 °F

Light rain. Passing clouds.


Feels Like: 75 °F
Forecast: 69 / 77 °F
Wind: 9 mph from Southeast

Location: Salvador Aeroporto

Current Time: Jun 3, 2015 at 9:17:11 PM

Latest Report: Jun 3, 2015 at 8:00 PM


Visibility: 5 mi

Pressure: N/A

Humidity: 89%

Dew point: 72 °F

Location of Feira de SantanaLocation

Historic Weather in Feira de Santana — Graph

°F

Feira de Santana temperature yesterday

Maximum temperature yesterday: 82 °F (at 4:00 PM)
Minimum temperature yesterday: 75 °F (at 2:00 AM)
Average temperature yesterday: 79 °F

Past Weeks' High & Low Weather Summary

 TemperatureHumidityPressure
High84 °F (May 23, 11:00 AM)100% (May 21, 10:00 AM)30.09 "Hg (May 21, 10:00 AM)
Low43 °F (May 21, 11:00 AM)55% (May 23, 11:00 AM)29.86 "Hg (May 29, 3:00 PM)
Average79 °F75%30.00 "Hg
* Reported May 19 8:00 PM — Jun 3 8:00 PM, Feira de Santana, Weather by CustomWeather, © 2015

Note: Actual official high and low records may vary slightly from our data, if they occured in-between our weather recording intervals... More about our weather records

Advertising

Feira de Santana weather history for previous 24 hours

 ConditionsComfort  
Time TempWeatherWind HumidityBarometerVisibility
8:00 PM
Wed, Jun 3
75 °FLight rain. Passing clouds.9 mph89%N/A5 mi
7:00 PM77 °FPassing clouds.15 mph79%30.04 "HgN/A
6:00 PM77 °FScattered showers. Passing clouds.14 mph83%30.01 "HgN/A
5:00 PM79 °FScattered clouds.13 mph79%30.01 "HgN/A
4:00 PM82 °FScattered clouds.13 mph66%29.98 "HgN/A
3:00 PM82 °FScattered clouds.16 mph66%29.98 "HgN/A
2:00 PM82 °FScattered clouds.12 mph70%30.01 "Hg5 mi
1:00 PM79 °FFog.13 mph84%N/A3 mi
12:00 PM82 °FScattered clouds.12 mph70%30.04 "HgN/A
11:00 AM84 °FPassing clouds.16 mph62%30.04 "HgN/A
10:00 AM82 °FPassing clouds.13 mph62%30.07 "HgN/A
9:00 AM81 °FPassing clouds.12 mph70%30.07 "HgN/A
8:00 AM81 °FPassing clouds.15 mph66%30.04 "HgN/A
7:00 AM81 °FPassing clouds.17 mph66%30.04 "HgN/A
6:00 AM79 °FPassing clouds.13 mph70%29.98 "HgN/A
5:00 AM79 °FPassing clouds.13 mph70%29.98 "HgN/A
4:00 AM79 °FPassing clouds.13 mph70%29.98 "HgN/A
3:00 AM79 °FPassing clouds.12 mph70%29.98 "HgN/A
2:00 AM79 °FPassing clouds.12 mph70%29.98 "HgN/A
1:00 AM79 °FPassing clouds.15 mph65%30.01 "HgN/A
12:00 AM79 °FPassing clouds.12 mph65%30.01 "HgN/A
11:00 PM
Tue, Jun 2
79 °FPassing clouds.15 mph65%30.04 "HgN/A
10:00 PM79 °FPassing clouds.14 mph65%30.04 "HgN/A
9:00 PM81 °FPassing clouds.13 mph66%30.01 "HgN/A
Weather by CustomWeather, © 2015

See weather overviewHow to use our weather pages